Waarnemingen

Advertentie
Mijn weer
Gaddede A, Zweden (2219): temperatuur & dauwpunt: 20.01.2021 09:00:00 - 26.01.2021 09:00:00 (CET)Gaddede A, Zweden (2219): windsnelheid & windstoten: 20.01.2021 09:00:00 - 26.01.2021 09:00:00 (CET)Gaddede A, Zweden (2219): windrichting: 20.01.2021 09:00:00 - 26.01.2021 09:00:00 (CET)Gaddede A, Zweden (2219): luchtdruk: 20.01.2021 09:00:00 - 26.01.2021 09:00:00 (CET)Gaddede A, Zweden (2219): zicht: 20.01.2021 09:00:00 - 26.01.2021 09:00:00 (CET)Gaddede A, Zweden (2219): neerslag: 20.01.2021 09:00:00 - 26.01.2021 09:00:00 (CET)
Datum & Tijd tt [°C] td [°C] ff [km/u] ff [kn] fx [km/u] fx [kn] dd ppp [hPa] vv [km] rr [mm]
26.01.2021 09:00:00 -6,0 -6,8 7 4 16 8 W 1005,6 25 0,0
26.01.2021 08:00:00 -5,7 -6,5 4 2 13 7 WNW 1005,2 17 0,1
26.01.2021 07:00:00 -5,7 -6,6 5 3 13 7 W 1004,9 9 0,0
26.01.2021 06:00:00 -5,6 -6,4 6 3 13 7 WNW 1004,9 15 0,0
26.01.2021 05:00:00 -6,0 -6,8 6 3 11 6 WNW 1004,7 16 0,0
26.01.2021 04:00:00 -7,1 -8,0 3 2 14 8 O 1004,5 16 0,0
26.01.2021 03:00:00 -10,0 -11,2 3 2 10 5 OZO 1004,8 50 0,0
26.01.2021 02:00:00 -13,6 -15,2 5 3 8 4 O 1004,9 50 0,0
26.01.2021 01:00:00 -13,0 -14,6 4 2 8 4 O 1004,6 50 0,0
26.01.2021 00:00:00 -13,7 -15,3 4 2 9 5 O 1004,6 50 0,0
25.01.2021 23:00:00 -13,5 -14,9 4 2 7 4 ONO 1004,6 50 0,0
25.01.2021 22:00:00 -15,1 -16,5 4 2 8 5 O 1004,7 50 0,0
25.01.2021 21:00:00 -14,9 -16,4 4 2 9 5 O 1004,4 50 0,0
25.01.2021 20:00:00 -16,2 -18,0 5 3 9 5 O 1004,3 46 0,0
25.01.2021 19:00:00 -16,0 -17,8 5 3 10 6 O 1004,0 50 0,0
25.01.2021 18:00:00 -16,3 -18,1 6 4 9 5 O 1003,9 50 0,0
25.01.2021 17:00:00 -16,6 -18,5 5 3 9 5 O 1003,9 39 0,0
25.01.2021 16:00:00 -15,7 -17,6 6 4 8 5 O 1003,6 40 0,0
25.01.2021 15:00:00 -14,3 -16,0 3 2 6 3 O 1003,0 43 0,0
25.01.2021 14:00:00 -13,0 -14,4 5 3 6 4 O 1002,7 37 0,0
25.01.2021 13:00:00 -14,1 -15,8 0 0 5 3 N 1002,9 30 -
25.01.2021 12:00:00 -14,4 -15,9 3 2 6 4 OZO 1003,0 29 0,0
25.01.2021 11:00:00 -16,1 -18,0 5 3 8 4 O 1003,1 22 0,0
25.01.2021 10:00:00 -16,3 -18,4 5 3 10 6 OZO 1002,8 23 0,0
25.01.2021 09:00:00 -14,6 -16,0 2 1 7 4 Z 1002,2 24 0,0
25.01.2021 08:00:00 -13,3 -14,7 4 2 8 4 O 1001,7 32 0,0
25.01.2021 07:00:00 -15,7 -17,4 3 2 7 4 O 1001,8 16 0,0
25.01.2021 06:00:00 -13,2 -15,0 4 2 8 4 ZZO 1001,2 13 0,0
25.01.2021 05:00:00 -13,3 -15,0 5 3 8 4 O 1001,1 15 0,0
25.01.2021 04:00:00 -13,5 -14,9 4 2 10 5 O 1001,1 13 0,0
25.01.2021 03:00:00 -10,4 -11,7 9 5 11 6 O 1000,3 17 0,0
25.01.2021 02:00:00 -11,6 -13,0 5 3 11 6 O 1000,3 13 0,0
25.01.2021 01:00:00 -12,0 -13,2 2 1 9 5 WZW 1000,1 11 0,0
25.01.2021 00:00:00 -10,8 -12,1 5 3 12 7 O 999,5 - 0,0
24.01.2021 23:00:00 -10,0 -11,2 3 2 18 10 O 998,7 9 0,0
24.01.2021 22:00:00 -8,2 -9,7 7 4 21 12 O 998,6 27 0,0
24.01.2021 21:00:00 -11,5 -13,1 4 2 14 7 WZW 998,7 8 0,0
24.01.2021 20:00:00 -11,6 -13,2 6 4 13 7 O 998,1 20 0,0
24.01.2021 19:00:00 -11,1 -13,3 5 3 14 7 ZZW 997,8 12 0,0
24.01.2021 18:00:00 -11,1 -13,0 8 4 15 8 O 997,8 16 0,0
24.01.2021 17:00:00 -11,4 -13,4 7 4 17 9 O 997,5 15 0,0
24.01.2021 16:00:00 -12,1 -13,8 7 4 17 9 O 997,2 8 0,0
24.01.2021 15:00:00 -12,0 -13,7 8 4 16 9 OZO 996,8 7 0,0
24.01.2021 14:00:00 -12,4 -14,0 8 4 - - OZO 996,6 8 0,0
24.01.2021 13:00:00 -12,4 -14,0 5 3 15 8 ZO 996,5 6 0,0
24.01.2021 12:00:00 -11,9 -13,8 0 0 8 4 N 996,0 8 0,0
24.01.2021 11:00:00 -12,5 -14,2 3 1 12 7 OZO 995,7 1,8 0,0
24.01.2021 10:00:00 -12,3 -14,0 4 2 16 9 ZO 994,9 13 0,0
24.01.2021 09:00:00 -12,9 -14,5 5 3 14 8 ZO 994,7 4,7 0,0
24.01.2021 08:00:00 -13,0 -14,6 5 3 17 9 OZO 994,2 6 0,0
24.01.2021 07:00:00 -13,0 -14,4 10 5 16 9 OZO 993,5 8 0,0
24.01.2021 06:00:00 -12,7 -14,4 8 4 24 13 ZO 993,4 3,0 0,0
24.01.2021 05:00:00 -12,1 -14,1 12 6 26 14 OZO 992,7 5 0,0
24.01.2021 04:00:00 -12,1 -14,4 13 7 25 13 OZO 992,6 12 0,0
24.01.2021 03:00:00 -12,6 -14,6 14 8 - - OZO 992,4 10 0,0
24.01.2021 02:00:00 -12,6 -14,7 12 7 27 14 OZO 992,4 12 0,0
24.01.2021 01:00:00 -12,8 -14,9 12 7 24 13 OZO 992,2 12 0,0
24.01.2021 00:00:00 -13,0 -15,0 12 6 23 12 OZO 991,7 6 0,0
23.01.2021 23:00:00 -12,7 -14,7 15 8 30 16 OZO 991,1 3,2 0,0
23.01.2021 22:00:00 -12,6 -14,6 14 8 25 13 OZO 990,9 1,7 0,2
23.01.2021 21:00:00 -13,0 -15,1 13 7 24 13 OZO 990,3 4,6 0,0
23.01.2021 20:00:00 -12,9 -15,2 11 6 26 14 OZO 989,8 23 0,0
23.01.2021 19:00:00 -12,9 -15,0 13 7 28 15 OZO 989,1 11 0,0
23.01.2021 18:00:00 -12,6 -14,7 12 6 25 14 OZO 988,6 27 0,0
23.01.2021 17:00:00 -12,7 -14,7 8 5 24 13 ZO 988,2 9 0,1
23.01.2021 16:00:00 -12,6 -14,5 8 4 24 13 OZO 987,5 2,3 0,3
23.01.2021 15:00:00 -12,5 -14,2 7 4 22 12 OZO 986,8 0,7 0,3
23.01.2021 14:00:00 -12,3 -14,0 6 3 20 11 OZO 986,1 0,6 0,8
23.01.2021 13:00:00 -12,3 -14,0 6 3 16 9 OZO 985,5 0,4 0,6
23.01.2021 12:00:00 -12,5 -14,4 9 5 18 10 OZO 984,8 0,5 0,6
23.01.2021 11:00:00 -12,8 -14,5 7 4 19 11 ZO 984,2 0,6 0,4
23.01.2021 10:00:00 -13,2 -15,0 8 4 26 14 OZO 983,7 1,0 0,4
23.01.2021 09:00:00 -13,2 -15,3 7 4 19 10 ZO 983,2 4,5 0,0
23.01.2021 08:00:00 -13,5 -15,3 5 3 13 7 ZZO 982,8 1,4 0,1
23.01.2021 07:00:00 -13,2 -15,0 4 2 18 10 WZW 982,5 0,9 0,3
23.01.2021 06:00:00 -12,9 -14,9 5 3 17 9 ZO 982,1 0,9 0,2
23.01.2021 05:00:00 -12,7 -15,0 5 3 14 8 OZO 982,0 1,9 0,6
23.01.2021 04:00:00 -12,6 -14,7 9 5 27 15 OZO 981,5 0,6 0,6
23.01.2021 03:00:00 -12,0 -14,9 6 4 30 16 O 981,4 6 0,1
23.01.2021 02:00:00 -11,9 -14,5 12 6 39 21 OZO 981,1 2,9 0,2
23.01.2021 01:00:00 -11,6 -13,6 11 6 42 23 ZO 980,8 0,9 0,5
23.01.2021 00:00:00 -11,3 -13,5 21 11 51 28 OZO 979,7 0,5 0,2
22.01.2021 23:00:00 -10,7 -12,7 15 8 36 20 ZO 980,5 0,8 0,4
22.01.2021 22:00:00 -9,6 -11,4 20 11 45 24 OZO 980,3 0,5 0,5
22.01.2021 21:00:00 -8,6 -10,7 12 7 46 25 ZO 980,5 1,3 0,4
22.01.2021 20:00:00 -7,5 -9,4 27 14 56 30 ONO 979,6 0,4 0,3
22.01.2021 19:00:00 -5,3 -7,3 26 14 58 32 O 979,0 0,7 0,2
22.01.2021 18:00:00 -3,7 -6,0 26 14 47 25 O 979,0 1,5 0,2
22.01.2021 17:00:00 -1,8 -3,2 23 13 51 27 O 979,3 3,7 0,0
22.01.2021 16:00:00 -1,7 -3,9 32 17 49 27 O 979,5 3,9 0,0
22.01.2021 15:00:00 -2,5 -3,9 25 13 52 28 O 979,8 1,7 0,0
22.01.2021 14:00:00 -2,7 -4,4 30 16 53 29 O 979,5 1,4 0,3
22.01.2021 13:00:00 -3,0 -4,6 31 17 58 32 O 979,2 1,1 0,6
22.01.2021 12:00:00 -3,1 -5,0 27 15 49 27 O 979,3 2,0 0,0
22.01.2021 11:00:00 -4,7 -6,7 23 13 48 26 O 979,6 6 0,1
22.01.2021 10:00:00 -6,5 -7,9 24 13 42 23 OZO 979,4 1,6 0,2
22.01.2021 09:00:00 -6,6 -8,0 26 14 48 26 OZO 979,2 0,6 0,3
22.01.2021 08:00:00 -6,9 -8,4 25 14 45 24 O 979,1 0,3 0,4
22.01.2021 07:00:00 -7,3 -8,7 22 12 44 24 OZO 979,2 0,6 0,3
22.01.2021 06:00:00 -8,5 -10,9 28 15 45 25 O 979,9 1,3 0,2
22.01.2021 05:00:00 -8,7 -10,2 22 12 50 27 OZO 980,3 6 0,2
22.01.2021 04:00:00 -8,8 -11,2 27 15 50 27 O 980,6 1,8 0,0
22.01.2021 03:00:00 -8,7 -11,8 31 17 51 28 O 980,8 2,5 0,0
22.01.2021 02:00:00 -8,7 -11,7 26 14 59 32 OZO 980,9 2,0 0,1
22.01.2021 01:00:00 -9,1 -11,6 34 18 68 37 O 980,0 0,5 0,1
22.01.2021 00:00:00 -9,0 -11,4 36 19 67 36 O 980,3 0,4 0,2
21.01.2021 23:00:00 -9,0 -10,9 39 21 65 35 OZO 980,4 0,2 0,3
21.01.2021 22:00:00 -8,9 -11,0 27 15 53 29 OZO 982,0 0,5 0,3
21.01.2021 21:00:00 -8,5 -10,4 26 14 64 35 OZO 981,6 0,5 0,3
21.01.2021 20:00:00 -8,3 -10,4 36 19 74 40 OZO 981,5 0,3 0,2
21.01.2021 19:00:00 -7,8 -10,0 40 22 79 43 O 981,5 0,3 0,3
21.01.2021 18:00:00 -7,4 -9,8 43 23 89 48 O 982,2 0,6 0,1
21.01.2021 17:00:00 -7,3 -9,8 50 27 94 51 O 983,2 0,5 0,0
21.01.2021 16:00:00 -7,1 -9,8 54 29 85 46 O 983,8 0,5 0,2
21.01.2021 15:00:00 -7,4 -9,8 50 27 85 46 O 985,1 0,3 0,2
21.01.2021 14:00:00 -7,7 -9,9 50 27 88 48 O 985,6 0,3 0,2
21.01.2021 13:00:00 -7,7 -9,9 51 28 92 50 O 986,6 0,2 0,2
21.01.2021 12:00:00 -8,2 -9,8 48 26 85 46 O 987,5 0,1 0,3
21.01.2021 11:00:00 -8,1 -10,0 51 27 86 46 O 988,7 0,2 0,4
21.01.2021 10:00:00 -7,9 -10,0 41 22 83 45 O 989,2 0,3 0,1
21.01.2021 09:00:00 -8,4 -10,6 36 19 71 39 O 991,0 0,5 0,2
21.01.2021 08:00:00 -8,6 -10,5 33 18 60 33 OZO 992,2 0,4 0,3
21.01.2021 07:00:00 -8,3 -10,4 31 17 76 41 OZO 993,6 0,7 0,4
21.01.2021 06:00:00 -8,3 -10,5 29 16 68 37 O 994,4 0,8 0,3
21.01.2021 05:00:00 -8,2 -10,6 35 19 66 35 O 995,2 0,6 0,2
21.01.2021 04:00:00 -8,4 -10,8 32 18 62 34 O 996,4 1,1 0,1
21.01.2021 03:00:00 -9,0 -11,1 29 16 55 30 O 997,4 0,9 0,1
21.01.2021 02:00:00 -9,2 -11,0 23 13 51 28 OZO 998,4 0,8 0,1
21.01.2021 01:00:00 -9,1 -10,9 29 16 58 31 O 999,0 1,1 0,0
21.01.2021 00:00:00 -8,9 -10,5 29 15 63 34 O 999,5 1,1 0,0
20.01.2021 23:00:00 -8,4 -9,6 29 16 53 29 O 1000,0 3,4 0,0
20.01.2021 22:00:00 -8,7 -9,9 - - 46 25 - 1000,9 - 0,0
20.01.2021 21:00:00 -8,4 -9,5 24 13 51 28 O 1001,4 3,6 0,0
20.01.2021 20:00:00 -8,4 -9,5 21 11 40 22 OZO 1001,5 4,4 0,0
20.01.2021 19:00:00 -8,6 -9,7 16 9 39 21 OZO 1002,0 2,4 0,0
20.01.2021 18:00:00 -9,6 -10,8 15 8 42 23 OZO 1002,4 8 0,1
20.01.2021 17:00:00 -10,0 -11,2 10 6 29 16 OZO 1002,5 3,2 0,1
20.01.2021 16:00:00 -10,5 -11,7 11 6 26 14 OZO 1002,9 8 0,0
20.01.2021 15:00:00 -11,0 -12,3 14 8 27 15 OZO 1003,2 9 0,0
20.01.2021 14:00:00 -10,7 -12,2 19 10 33 18 OZO 1003,7 8 0,0
20.01.2021 13:00:00 -10,3 -11,8 18 10 31 17 OZO 1004,2 9 0,0
20.01.2021 12:00:00 -10,4 -12,0 18 10 36 19 OZO 1004,5 4,2 0,0
20.01.2021 11:00:00 -11,2 -12,8 20 11 39 21 OZO 1004,7 2,6 0,1
20.01.2021 10:00:00 -10,9 -12,4 16 8 31 17 OZO 1004,7 5 0,0
20.01.2021 09:00:00 -12,5 -14,2 10 6 32 18 ZZO 1005,3 3,2 0,0

tt = temperatuur
td = dauwpunt
ff = windsnelheid
fx = windstoten
dd = windrichting
ppp = luchtdruk
vv = zicht
rr = neerslag

Weerstations in de omgeving